Flag for United Kingdom Weather past 2 weeks in St Helens, England, United Kingdom

Now
54 °F

Light rain. Scattered clouds.


Feels Like: 49 °F
Forecast: 47 / 54 °F
Wind: 18 mph from Southwest

Location: Liverpool Airport

Current Time: May 27, 2015 at 7:08:01 PM

Latest Report: May 27, 2015 at 6:20 PM


Visibility: N/A

Pressure: 29.98 "Hg

Humidity: 72%

Dew point: 45 °F

Location of St HelensLocation

Historic Weather in St Helens — Graph

°F

St Helens temperature yesterday

Maximum temperature yesterday: 55 °F (at 1:20 PM)
Minimum temperature yesterday: 50 °F (at 11:20 PM)
Average temperature yesterday: 53 °F

Past Weeks' High & Low Weather Summary

 TemperatureHumidityPressure
High63 °F (May 15, 3:20 PM)100% (May 18, 12:50 AM)30.33 "Hg (May 18, 12:50 AM)
Low41 °F (May 15, 5:20 AM)42% (May 13, 3:20 PM)29.47 "Hg (May 18, 11:50 PM)
Average53 °F76%30.08 "Hg
* Reported May 12 5:20 PM — May 27 5:50 PM, St Helens, Weather by CustomWeather, © 2015

Note: Actual official high and low records may vary slightly from our data, if they occured in-between our weather recording intervals... More about our weather records

Advertising

St Helens weather history for previous 24 hours

 ConditionsComfort  
Time TempWeatherWind HumidityBarometerVisibility
5:50 PM
Wed, May 27
54 °FLight rain. Scattered clouds.21 mph72%29.98 "HgN/A
5:20 PM52 °FLight rain. Partly sunny.9 mph82%30.01 "HgN/A
4:50 PM54 °FRain. Partly sunny.15 mph82%30.04 "Hg4 mi
4:20 PM55 °FRain. Partly sunny.14 mph82%30.04 "Hg5 mi
3:50 PM55 °FLight rain. Partly sunny.15 mph72%30.04 "Hg6 mi
3:20 PM59 °FScattered showers. Scattered clouds.16 mph68%30.07 "HgN/A
2:50 PM59 °FScattered clouds.8 mph68%30.07 "HgN/A
2:20 PM59 °FPartly sunny.12 mph68%30.09 "HgN/A
1:50 PM61 °FScattered clouds.13 mph63%30.09 "HgN/A
1:20 PM61 °FScattered clouds.12 mph63%30.12 "HgN/A
12:50 PM59 °FPartly sunny.8 mph63%30.12 "HgN/A
12:20 PM59 °FScattered clouds.3 mph63%30.15 "HgN/A
11:50 AM57 °FScattered clouds.7 mph63%30.18 "HgN/A
10:50 AM55 °FPassing clouds.5 mph67%30.21 "HgN/A
10:20 AM55 °FScattered clouds.7 mph72%30.21 "HgN/A
9:50 AM54 °FScattered clouds.7 mph72%30.24 "HgN/A
9:20 AM52 °FPartly sunny.7 mph77%30.24 "HgN/A
8:50 AM52 °FPartly sunny.9 mph82%30.27 "HgN/A
8:20 AM52 °FPartly sunny.7 mph82%30.27 "HgN/A
7:50 AM52 °FPartly sunny.7 mph82%30.27 "HgN/A
7:20 AM50 °FBroken clouds.8 mph82%30.27 "HgN/A
6:50 AM52 °FPartly sunny.9 mph82%30.27 "HgN/A
6:20 AM50 °FPartly sunny.7 mph88%30.27 "HgN/A
5:50 AM50 °FPassing clouds.7 mph82%30.27 "HgN/A
5:20 AM50 °FPassing clouds.5 mph76%30.30 "HgN/A
4:50 AM50 °FPassing clouds.7 mph76%30.30 "HgN/A
4:20 AM52 °FPassing clouds.6 mph72%30.30 "HgN/A
3:50 AM52 °FPassing clouds.5 mph72%30.30 "HgN/A
3:20 AM50 °FPassing clouds.7 mph76%30.30 "HgN/A
2:50 AM52 °FPassing clouds.7 mph77%30.30 "HgN/A
2:20 AM50 °FPassing clouds.8 mph82%30.30 "HgN/A
1:50 AM50 °FPassing clouds.8 mph82%30.33 "HgN/A
1:20 AM50 °FPassing clouds.9 mph76%30.33 "HgN/A
12:50 AM50 °FPassing clouds.9 mph76%30.33 "HgN/A
12:20 AM50 °FPassing clouds.12 mph76%30.33 "HgN/A
11:50 PM
Tue, May 26
50 °FPassing clouds.7 mph76%30.33 "HgN/A
11:20 PM50 °FPassing clouds.10 mph76%30.33 "HgN/A
10:20 PM52 °FPassing clouds.9 mph72%30.33 "HgN/A
9:50 PM52 °FScattered clouds.16 mph67%30.33 "HgN/A
9:20 PM52 °FPassing clouds.14 mph72%30.33 "HgN/A
8:50 PM52 °FScattered clouds.14 mph72%30.33 "HgN/A
8:20 PM52 °FScattered clouds.15 mph72%30.33 "HgN/A
7:50 PM52 °FScattered clouds.16 mph72%30.33 "HgN/A
7:20 PM54 °FScattered clouds.17 mph67%30.33 "HgN/A
Weather by CustomWeather, © 2015

See weather overviewHow to use our weather pages